owner,sensor,date,latitude,longitude,vertical_datum,mass_concentration_of_oxygen_in_sea_water,qcFlag 
SCCF RECON,ioos:station:SCCF:13:1,2013-10-01T00:00:00Z,26.5255,-82.0032,2.32,5.79,1111122 
SCCF RECON,ioos:station:SCCF:13:1,2013-10-01T01:00:00Z,26.5255,-82.0032,2.42,5.07,1111122 
SCCF RECON,ioos:station:SCCF:13:1,2013-10-01T02:00:00Z,26.5255,-82.0032,2.51,5.19,1111122 
SCCF RECON,ioos:station:SCCF:13:1,2013-10-01T03:00:00Z,26.5255,-82.0032,2.58,5.29,1111122 
SCCF RECON,ioos:station:SCCF:13:1,2013-10-01T04:00:00Z,26.5255,-82.0032,2.57,5.97,1111122 
SCCF RECON,ioos:station:SCCF:13:1,2013-10-01T05:00:00Z,26.5255,-82.0032,2.55,5.93,1111122 
SCCF RECON,ioos:station:SCCF:13:1,2013-10-01T06:00:00Z,26.5255,-82.0032,2.48,5.87,1111122 
SCCF RECON,ioos:station:SCCF:13:1,2013-10-01T07:00:00Z,26.5255,-82.0032,2.4,5.71,1111122 
SCCF RECON,ioos:station:SCCF:13:1,2013-10-01T08:00:00Z,26.5255,-82.0032,2.299,5.49,1111122 
SCCF RECON,ioos:station:SCCF:13:1,2013-10-01T09:00:00Z,26.5255,-82.0032,2.214,5.45,1111122 
SCCF RECON,ioos:station:SCCF:13:1,2013-10-01T10:00:00Z,26.5255,-82.0032,2.22,5.42,1111122 
SCCF RECON,ioos:station:SCCF:13:1,2013-10-01T11:00:00Z,26.5255,-82.0032,2.31,5.52,1111122 
SCCF RECON,ioos:station:SCCF:13:1,2013-10-01T12:00:00Z,26.5255,-82.0032,2.43,5.09,1111122 
SCCF RECON,ioos:station:SCCF:13:1,2013-10-01T13:00:00Z,26.5255,-82.0032,2.509,4.94,1111122 
SCCF RECON,ioos:station:SCCF:13:1,2013-10-01T14:00:00Z,26.5255,-82.0032,2.57,5.18,1111122 
SCCF RECON,ioos:station:SCCF:13:1,2013-10-01T15:00:00Z,26.5255,-82.0032,2.61,5.41,1111122 
SCCF RECON,ioos:station:SCCF:13:1,2013-10-01T16:00:00Z,26.5255,-82.0032,2.63,5.47,1111122 
SCCF RECON,ioos:station:SCCF:13:1,2013-10-01T17:00:00Z,26.5255,-82.0032,2.613,5.29,1111122 
SCCF RECON,ioos:station:SCCF:13:1,2013-10-01T18:00:00Z,26.5255,-82.0032,2.52,5.26,1111122 
SCCF RECON,ioos:station:SCCF:13:1,2013-10-01T19:00:00Z,26.5255,-82.0032,2.38,5.17,1111122 
SCCF RECON,ioos:station:SCCF:13:1,2013-10-01T20:00:00Z,26.5255,-82.0032,2.28,5.75,1111122 
SCCF RECON,ioos:station:SCCF:13:1,2013-10-01T21:00:00Z,26.5255,-82.0032,2.215,5.65,1111122 
SCCF RECON,ioos:station:SCCF:13:1,2013-10-01T22:00:00Z,26.5255,-82.0032,2.149,5.83,1111122 
SCCF RECON,ioos:station:SCCF:13:1,2013-10-01T23:00:00Z,26.5255,-82.0032,2.14,5.8,1111122 
SCCF RECON,ioos:station:SCCF:13:1,2013-10-02T00:00:00Z,26.5255,-82.0032,2.24,5.72,1111122 
SCCF RECON,ioos:station:SCCF:13:1,2013-10-02T01:00:00Z,26.5255,-82.0032,2.39,5.63,1111122 
SCCF RECON,ioos:station:SCCF:13:1,2013-10-02T02:00:00Z,26.5255,-82.0032,2.451,5.07,1111122 
SCCF RECON,ioos:station:SCCF:13:1,2013-10-02T03:00:00Z,26.5255,-82.0032,2.51,5.05,1111122 
SCCF RECON,ioos:station:SCCF:13:1,2013-10-02T04:00:00Z,26.5255,-82.0032,2.54,5.42,1111122 
SCCF RECON,ioos:station:SCCF:13:1,2013-10-02T05:00:00Z,26.5255,-82.0032,2.522,5.58,1111122 
SCCF RECON,ioos:station:SCCF:13:1,2013-10-02T06:00:00Z,26.5255,-82.0032,2.44,5.44,1111122 
SCCF RECON,ioos:station:SCCF:13:1,2013-10-02T07:00:00Z,26.5255,-82.0032,2.35,5.43,1111122 
SCCF RECON,ioos:station:SCCF:13:1,2013-10-02T08:00:00Z,26.5255,-82.0032,2.25,5.48,1111122 
SCCF RECON,ioos:station:SCCF:13:1,2013-10-02T09:00:00Z,26.5255,-82.0032,2.151,5.6,1111122 
SCCF RECON,ioos:station:SCCF:13:1,2013-10-02T10:00:00Z,26.5255,-82.0032,2.088,5.59,1111122 
SCCF RECON,ioos:station:SCCF:13:1,2013-10-02T11:00:00Z,26.5255,-82.0032,2.11,5.68,1111122 
SCCF RECON,ioos:station:SCCF:13:1,2013-10-02T12:00:00Z,26.5255,-82.0032,2.22,5.68,1111122 
SCCF RECON,ioos:station:SCCF:13:1,2013-10-02T13:00:00Z,26.5255,-82.0032,2.37,5.61,1111122 
SCCF RECON,ioos:station:SCCF:13:1,2013-10-02T14:00:00Z,26.5255,-82.0032,2.447,4.86,1111122 
SCCF RECON,ioos:station:SCCF:13:1,2013-10-02T15:00:00Z,26.5255,-82.0032,2.502,5.13,1111122 
SCCF RECON,ioos:station:SCCF:13:1,2013-10-02T16:00:00Z,26.5255,-82.0032,2.562,5.19,1111122 
SCCF RECON,ioos:station:SCCF:13:1,2013-10-02T17:00:00Z,26.5255,-82.0032,2.57,5.39,1111122 
SCCF RECON,ioos:station:SCCF:13:1,2013-10-02T18:00:00Z,26.5255,-82.0032,2.519,5.42,1111122 
SCCF RECON,ioos:station:SCCF:13:1,2013-10-02T19:00:00Z,26.5255,-82.0032,2.42,5.4,1111122 
SCCF RECON,ioos:station:SCCF:13:1,2013-10-02T20:00:00Z,26.5255,-82.0032,2.32,5.18,1111122 
SCCF RECON,ioos:station:SCCF:13:1,2013-10-02T21:00:00Z,26.5255,-82.0032,2.244,5.76,1111122 
SCCF RECON,ioos:station:SCCF:13:1,2013-10-02T22:00:00Z,26.5255,-82.0032,2.19,5.8,1111122 
SCCF RECON,ioos:station:SCCF:13:1,2013-10-02T23:00:00Z,26.5255,-82.0032,2.23,5.82,1111122 
SCCF RECON,ioos:station:SCCF:13:1,2013-10-03T00:00:00Z,26.5255,-82.0032,2.25,5.86,1111122 
SCCF RECON,ioos:station:SCCF:13:1,2013-10-03T01:00:00Z,26.5255,-82.0032,2.33,5.64,1111122 
SCCF RECON,ioos:station:SCCF:13:1,2013-10-03T02:00:00Z,26.5255,-82.0032,2.46,4.86,1111122 
SCCF RECON,ioos:station:SCCF:13:1,2013-10-03T03:00:00Z,26.5255,-82.0032,2.56,4.97,1111122 
SCCF RECON,ioos:station:SCCF:13:1,2013-10-03T04:00:00Z,26.5255,-82.0032,2.61,5.43,1111122 
SCCF RECON,ioos:station:SCCF:13:1,2013-10-03T05:00:00Z,26.5255,-82.0032,2.63,5.49,1111122 
SCCF RECON,ioos:station:SCCF:13:1,2013-10-03T06:00:00Z,26.5255,-82.0032,2.617,5.53,1111122 
SCCF RECON,ioos:station:SCCF:13:1,2013-10-03T07:00:00Z,26.5255,-82.0032,2.52,5.39,1111122 
SCCF RECON,ioos:station:SCCF:13:1,2013-10-03T08:00:00Z,26.5255,-82.0032,2.38,5.27,1111122 
SCCF RECON,ioos:station:SCCF:13:1,2013-10-03T09:00:00Z,26.5255,-82.0032,2.28,5.49,1111122 
SCCF RECON,ioos:station:SCCF:13:1,2013-10-03T10:00:00Z,26.5255,-82.0032,2.2,5.59,1111122 
SCCF RECON,ioos:station:SCCF:13:1,2013-10-03T11:00:00Z,26.5255,-82.0032,2.16,5.61,1111122 
SCCF RECON,ioos:station:SCCF:13:1,2013-10-03T12:00:00Z,26.5255,-82.0032,2.19,5.62,1111122 
SCCF RECON,ioos:station:SCCF:13:1,2013-10-03T13:00:00Z,26.5255,-82.0032,2.337,5.63,1111122 
SCCF RECON,ioos:station:SCCF:13:1,2013-10-03T14:00:00Z,26.5255,-82.0032,2.45,5.17,1111122 
SCCF RECON,ioos:station:SCCF:13:1,2013-10-03T15:00:00Z,26.5255,-82.0032,2.53,4.85,1111122 
SCCF RECON,ioos:station:SCCF:13:1,2013-10-03T16:00:00Z,26.5255,-82.0032,1.0,-9999.0,1111122 
SCCF RECON,ioos:station:SCCF:13:1,2013-10-03T17:00:00Z,26.5255,-82.0032,1.0,-9999.0,1111122 
SCCF RECON,ioos:station:SCCF:13:1,2013-10-03T18:00:00Z,26.5255,-82.0032,1.0,-9999.0,1111122 
SCCF RECON,ioos:station:SCCF:13:1,2013-10-03T19:00:00Z,26.5255,-82.0032,1.0,-9999.0,1111122 
SCCF RECON,ioos:station:SCCF:13:1,2013-10-03T20:00:00Z,26.5255,-82.0032,1.0,-9999.0,1111122 
SCCF RECON,ioos:station:SCCF:13:1,2013-10-03T21:00:00Z,26.5255,-82.0032,1.0,-9999.0,1111122 
SCCF RECON,ioos:station:SCCF:13:1,2013-10-03T22:00:00Z,26.5255,-82.0032,1.0,-9999.0,1111122 
SCCF RECON,ioos:station:SCCF:13:1,2013-10-03T23:00:00Z,26.5255,-82.0032,1.0,-9999.0,1111122 
SCCF RECON,ioos:station:SCCF:13:1,2013-10-04T00:00:00Z,26.5255,-82.0032,1.0,-9999.0,1111122 
SCCF RECON,ioos:station:SCCF:13:1,2013-10-04T01:00:00Z,26.5255,-82.0032,1.0,-9999.0,1111122 
SCCF RECON,ioos:station:SCCF:13:1,2013-10-04T02:00:00Z,26.5255,-82.0032,1.0,-9999.0,1111122 
SCCF RECON,ioos:station:SCCF:13:1,2013-10-04T03:00:00Z,26.5255,-82.0032,1.0,-9999.0,1111122 
SCCF RECON,ioos:station:SCCF:13:1,2013-10-04T04:00:00Z,26.5255,-82.0032,1.0,-9999.0,1111122 
SCCF RECON,ioos:station:SCCF:13:1,2013-10-04T05:00:00Z,26.5255,-82.0032,1.0,-9999.0,1111122 
SCCF RECON,ioos:station:SCCF:13:1,2013-10-04T06:00:00Z,26.5255,-82.0032,1.0,-9999.0,1111122 
SCCF RECON,ioos:station:SCCF:13:1,2013-10-04T07:00:00Z,26.5255,-82.0032,1.0,-9999.0,1111122 
SCCF RECON,ioos:station:SCCF:13:1,2013-10-04T08:00:00Z,26.5255,-82.0032,1.0,-9999.0,1111122 
SCCF RECON,ioos:station:SCCF:13:1,2013-10-04T09:00:00Z,26.5255,-82.0032,1.0,-9999.0,1111122 
SCCF RECON,ioos:station:SCCF:13:1,2013-10-04T10:00:00Z,26.5255,-82.0032,1.0,-9999.0,1111122 
SCCF RECON,ioos:station:SCCF:13:1,2013-10-04T11:00:00Z,26.5255,-82.0032,1.0,-9999.0,1111122 
SCCF RECON,ioos:station:SCCF:13:1,2013-10-04T12:00:00Z,26.5255,-82.0032,1.0,-9999.0,1111122 
SCCF RECON,ioos:station:SCCF:13:1,2013-10-04T13:00:00Z,26.5255,-82.0032,1.0,-9999.0,1111122 
SCCF RECON,ioos:station:SCCF:13:1,2013-10-04T14:00:00Z,26.5255,-82.0032,1.0,-9999.0,1111122 
SCCF RECON,ioos:station:SCCF:13:1,2013-10-04T15:00:00Z,26.5255,-82.0032,1.0,-9999.0,1111122 
SCCF RECON,ioos:station:SCCF:13:1,2013-10-04T16:00:00Z,26.5255,-82.0032,1.0,-9999.0,1111122 
SCCF RECON,ioos:station:SCCF:13:1,2013-10-04T17:00:00Z,26.5255,-82.0032,1.0,-9999.0,1111122 
SCCF RECON,ioos:station:SCCF:13:1,2013-10-04T18:00:00Z,26.5255,-82.0032,1.0,-9999.0,1111122 
SCCF RECON,ioos:station:SCCF:13:1,2013-10-04T19:00:00Z,26.5255,-82.0032,1.0,-9999.0,1111122 
SCCF RECON,ioos:station:SCCF:13:1,2013-10-04T20:00:00Z,26.5255,-82.0032,1.0,-9999.0,1111122 
SCCF RECON,ioos:station:SCCF:13:1,2013-10-04T21:00:00Z,26.5255,-82.0032,1.0,-9999.0,1111122 
SCCF RECON,ioos:station:SCCF:13:1,2013-10-04T22:00:00Z,26.5255,-82.0032,1.0,-9999.0,1111122 
SCCF RECON,ioos:station:SCCF:13:1,2013-10-04T23:00:00Z,26.5255,-82.0032,1.0,-9999.0,1111122 
SCCF RECON,ioos:station:SCCF:13:1,2013-10-05T00:00:00Z,26.5255,-82.0032,1.0,-9999.0,1111122 
SCCF RECON,ioos:station:SCCF:13:1,2013-10-05T01:00:00Z,26.5255,-82.0032,1.0,-9999.0,1111122 
SCCF RECON,ioos:station:SCCF:13:1,2013-10-05T02:00:00Z,26.5255,-82.0032,1.0,-9999.0,1111122 
SCCF RECON,ioos:station:SCCF:13:1,2013-10-05T03:00:00Z,26.5255,-82.0032,1.0,-9999.0,1111122 
SCCF RECON,ioos:station:SCCF:13:1,2013-10-05T04:00:00Z,26.5255,-82.0032,1.0,-9999.0,1111122 
SCCF RECON,ioos:station:SCCF:13:1,2013-10-05T05:00:00Z,26.5255,-82.0032,1.0,-9999.0,1111122 
SCCF RECON,ioos:station:SCCF:13:1,2013-10-05T06:00:00Z,26.5255,-82.0032,1.0,-9999.0,1111122 
SCCF RECON,ioos:station:SCCF:13:1,2013-10-05T07:00:00Z,26.5255,-82.0032,1.0,-9999.0,1111122 
SCCF RECON,ioos:station:SCCF:13:1,2013-10-05T08:00:00Z,26.5255,-82.0032,1.0,-9999.0,1111122 
SCCF RECON,ioos:station:SCCF:13:1,2013-10-05T09:00:00Z,26.5255,-82.0032,1.0,-9999.0,1111122 
SCCF RECON,ioos:station:SCCF:13:1,2013-10-05T10:00:00Z,26.5255,-82.0032,1.0,-9999.0,1111122 
SCCF RECON,ioos:station:SCCF:13:1,2013-10-05T11:00:00Z,26.5255,-82.0032,1.0,-9999.0,1111122 
SCCF RECON,ioos:station:SCCF:13:1,2013-10-05T12:00:00Z,26.5255,-82.0032,1.0,-9999.0,1111122 
SCCF RECON,ioos:station:SCCF:13:1,2013-10-05T13:00:00Z,26.5255,-82.0032,1.0,-9999.0,1111122 
SCCF RECON,ioos:station:SCCF:13:1,2013-10-05T14:00:00Z,26.5255,-82.0032,1.0,-9999.0,1111122 
SCCF RECON,ioos:station:SCCF:13:1,2013-10-05T15:00:00Z,26.5255,-82.0032,1.0,-9999.0,1111122 
SCCF RECON,ioos:station:SCCF:13:1,2013-10-05T16:00:00Z,26.5255,-82.0032,1.0,-9999.0,1111122 
SCCF RECON,ioos:station:SCCF:13:1,2013-10-05T17:00:00Z,26.5255,-82.0032,1.0,-9999.0,1111122 
SCCF RECON,ioos:station:SCCF:13:1,2013-10-05T18:00:00Z,26.5255,-82.0032,1.0,-9999.0,1111122 
SCCF RECON,ioos:station:SCCF:13:1,2013-10-05T19:00:00Z,26.5255,-82.0032,1.0,-9999.0,1111122 
SCCF RECON,ioos:station:SCCF:13:1,2013-10-05T20:00:00Z,26.5255,-82.0032,1.0,-9999.0,1111122 
SCCF RECON,ioos:station:SCCF:13:1,2013-10-05T21:00:00Z,26.5255,-82.0032,1.0,-9999.0,1111122 
SCCF RECON,ioos:station:SCCF:13:1,2013-10-05T22:00:00Z,26.5255,-82.0032,1.0,-9999.0,1111122 
SCCF RECON,ioos:station:SCCF:13:1,2013-10-05T23:00:00Z,26.5255,-82.0032,1.0,-9999.0,1111122 
SCCF RECON,ioos:station:SCCF:13:1,2013-10-06T00:00:00Z,26.5255,-82.0032,1.0,-9999.0,1111122 
SCCF RECON,ioos:station:SCCF:13:1,2013-10-06T01:00:00Z,26.5255,-82.0032,1.0,-9999.0,1111122 
SCCF RECON,ioos:station:SCCF:13:1,2013-10-06T02:00:00Z,26.5255,-82.0032,1.0,-9999.0,1111122 
SCCF RECON,ioos:station:SCCF:13:1,2013-10-06T03:00:00Z,26.5255,-82.0032,1.0,-9999.0,1111122 
SCCF RECON,ioos:station:SCCF:13:1,2013-10-06T04:00:00Z,26.5255,-82.0032,1.0,-9999.0,1111122 
SCCF RECON,ioos:station:SCCF:13:1,2013-10-06T05:00:00Z,26.5255,-82.0032,1.0,-9999.0,1111122 
SCCF RECON,ioos:station:SCCF:13:1,2013-10-06T06:00:00Z,26.5255,-82.0032,1.0,-9999.0,1111122 
SCCF RECON,ioos:station:SCCF:13:1,2013-10-06T07:00:00Z,26.5255,-82.0032,1.0,-9999.0,1111122 
SCCF RECON,ioos:station:SCCF:13:1,2013-10-06T08:00:00Z,26.5255,-82.0032,1.0,-9999.0,1111122 
SCCF RECON,ioos:station:SCCF:13:1,2013-10-06T09:00:00Z,26.5255,-82.0032,1.0,-9999.0,1111122 
SCCF RECON,ioos:station:SCCF:13:1,2013-10-06T10:00:00Z,26.5255,-82.0032,1.0,-9999.0,1111122 
SCCF RECON,ioos:station:SCCF:13:1,2013-10-06T11:00:00Z,26.5255,-82.0032,1.0,-9999.0,1111122 
SCCF RECON,ioos:station:SCCF:13:1,2013-10-06T12:00:00Z,26.5255,-82.0032,1.0,-9999.0,1111122 
SCCF RECON,ioos:station:SCCF:13:1,2013-10-06T13:00:00Z,26.5255,-82.0032,1.0,-9999.0,1111122 
SCCF RECON,ioos:station:SCCF:13:1,2013-10-06T14:00:00Z,26.5255,-82.0032,1.0,-9999.0,1111122 
SCCF RECON,ioos:station:SCCF:13:1,2013-10-06T15:00:00Z,26.5255,-82.0032,1.0,-9999.0,1111122 
SCCF RECON,ioos:station:SCCF:13:1,2013-10-06T16:00:00Z,26.5255,-82.0032,1.0,-9999.0,1111122 
SCCF RECON,ioos:station:SCCF:13:1,2013-10-06T17:00:00Z,26.5255,-82.0032,1.0,-9999.0,1111122 
SCCF RECON,ioos:station:SCCF:13:1,2013-10-06T18:00:00Z,26.5255,-82.0032,1.0,-9999.0,1111122 
SCCF RECON,ioos:station:SCCF:13:1,2013-10-06T19:00:00Z,26.5255,-82.0032,1.0,-9999.0,1111122 
SCCF RECON,ioos:station:SCCF:13:1,2013-10-06T20:00:00Z,26.5255,-82.0032,1.0,-9999.0,1111122 
SCCF RECON,ioos:station:SCCF:13:1,2013-10-06T21:00:00Z,26.5255,-82.0032,1.0,-9999.0,1111122 
SCCF RECON,ioos:station:SCCF:13:1,2013-10-06T22:00:00Z,26.5255,-82.0032,1.0,-9999.0,1111122 
SCCF RECON,ioos:station:SCCF:13:1,2013-10-06T23:00:00Z,26.5255,-82.0032,1.0,-9999.0,1111122 
SCCF RECON,ioos:station:SCCF:13:1,2013-10-07T00:00:00Z,26.5255,-82.0032,1.0,-9999.0,1111122 
SCCF RECON,ioos:station:SCCF:13:1,2013-10-07T01:00:00Z,26.5255,-82.0032,1.0,-9999.0,1111122 
SCCF RECON,ioos:station:SCCF:13:1,2013-10-07T02:00:00Z,26.5255,-82.0032,1.0,-9999.0,1111122 
SCCF RECON,ioos:station:SCCF:13:1,2013-10-07T03:00:00Z,26.5255,-82.0032,1.0,-9999.0,1111122 
SCCF RECON,ioos:station:SCCF:13:1,2013-10-07T04:00:00Z,26.5255,-82.0032,1.0,-9999.0,1111122 
SCCF RECON,ioos:station:SCCF:13:1,2013-10-07T05:00:00Z,26.5255,-82.0032,1.0,-9999.0,1111122 
SCCF RECON,ioos:station:SCCF:13:1,2013-10-07T06:00:00Z,26.5255,-82.0032,1.0,-9999.0,1111122 
SCCF RECON,ioos:station:SCCF:13:1,2013-10-07T07:00:00Z,26.5255,-82.0032,1.0,-9999.0,1111122 
SCCF RECON,ioos:station:SCCF:13:1,2013-10-07T08:00:00Z,26.5255,-82.0032,1.0,-9999.0,1111122 
SCCF RECON,ioos:station:SCCF:13:1,2013-10-07T09:00:00Z,26.5255,-82.0032,1.0,-9999.0,1111122 
SCCF RECON,ioos:station:SCCF:13:1,2013-10-07T10:00:00Z,26.5255,-82.0032,1.0,-9999.0,1111122 
SCCF RECON,ioos:station:SCCF:13:1,2013-10-07T11:00:00Z,26.5255,-82.0032,1.0,-9999.0,1111122 
SCCF RECON,ioos:station:SCCF:13:1,2013-10-07T12:00:00Z,26.5255,-82.0032,1.0,-9999.0,1111122 
SCCF RECON,ioos:station:SCCF:13:1,2013-10-07T13:00:00Z,26.5255,-82.0032,1.0,-9999.0,1111122 
SCCF RECON,ioos:station:SCCF:13:1,2013-10-07T14:00:00Z,26.5255,-82.0032,1.0,-9999.0,1111122 
SCCF RECON,ioos:station:SCCF:13:1,2013-10-07T15:00:00Z,26.5255,-82.0032,1.0,-9999.0,1111122 
SCCF RECON,ioos:station:SCCF:13:1,2013-10-07T16:00:00Z,26.5255,-82.0032,1.0,-9999.0,1111122 
SCCF RECON,ioos:station:SCCF:13:1,2013-10-07T17:00:00Z,26.5255,-82.0032,1.0,-9999.0,1111122 
SCCF RECON,ioos:station:SCCF:13:1,2013-10-07T18:00:00Z,26.5255,-82.0032,1.0,-9999.0,1111122 
SCCF RECON,ioos:station:SCCF:13:1,2013-10-07T19:00:00Z,26.5255,-82.0032,1.0,-9999.0,1111122 
SCCF RECON,ioos:station:SCCF:13:1,2013-10-07T20:00:00Z,26.5255,-82.0032,1.0,-9999.0,1111122 
SCCF RECON,ioos:station:SCCF:13:1,2013-10-07T21:00:00Z,26.5255,-82.0032,1.0,-9999.0,1111122 
SCCF RECON,ioos:station:SCCF:13:1,2013-10-07T22:00:00Z,26.5255,-82.0032,1.0,-9999.0,1111122 
SCCF RECON,ioos:station:SCCF:13:1,2013-10-07T23:00:00Z,26.5255,-82.0032,1.0,-9999.0,1111122 
SCCF RECON,ioos:station:SCCF:13:1,2013-10-08T00:00:00Z,26.5255,-82.0032,1.0,-9999.0,1111122 
SCCF RECON,ioos:station:SCCF:13:1,2013-10-08T01:00:00Z,26.5255,-82.0032,1.0,-9999.0,1111122 
SCCF RECON,ioos:station:SCCF:13:1,2013-10-08T02:00:00Z,26.5255,-82.0032,1.0,-9999.0,1111122 
SCCF RECON,ioos:station:SCCF:13:1,2013-10-08T03:00:00Z,26.5255,-82.0032,1.0,-9999.0,1111122 
SCCF RECON,ioos:station:SCCF:13:1,2013-10-08T04:00:00Z,26.5255,-82.0032,1.0,-9999.0,1111122 
SCCF RECON,ioos:station:SCCF:13:1,2013-10-08T05:00:00Z,26.5255,-82.0032,1.0,-9999.0,1111122 
SCCF RECON,ioos:station:SCCF:13:1,2013-10-08T06:00:00Z,26.5255,-82.0032,1.0,-9999.0,1111122 
SCCF RECON,ioos:station:SCCF:13:1,2013-10-08T07:00:00Z,26.5255,-82.0032,1.0,-9999.0,1111122 
SCCF RECON,ioos:station:SCCF:13:1,2013-10-08T08:00:00Z,26.5255,-82.0032,1.0,-9999.0,1111122 
SCCF RECON,ioos:station:SCCF:13:1,2013-10-08T09:00:00Z,26.5255,-82.0032,1.0,-9999.0,1111122 
SCCF RECON,ioos:station:SCCF:13:1,2013-10-08T10:00:00Z,26.5255,-82.0032,1.0,-9999.0,1111122 
SCCF RECON,ioos:station:SCCF:13:1,2013-10-08T11:00:00Z,26.5255,-82.0032,1.0,-9999.0,1111122 
SCCF RECON,ioos:station:SCCF:13:1,2013-10-08T12:00:00Z,26.5255,-82.0032,1.0,-9999.0,1111122 
SCCF RECON,ioos:station:SCCF:13:1,2013-10-08T13:00:00Z,26.5255,-82.0032,1.0,-9999.0,1111122 
SCCF RECON,ioos:station:SCCF:13:1,2013-10-08T14:00:00Z,26.5255,-82.0032,1.0,-9999.0,1111122 
SCCF RECON,ioos:station:SCCF:13:1,2013-10-08T15:00:00Z,26.5255,-82.0032,2.3,6.2,1111122 
SCCF RECON,ioos:station:SCCF:13:1,2013-10-08T16:00:00Z,26.5255,-82.0032,2.345,6.2,1111122 
SCCF RECON,ioos:station:SCCF:13:1,2013-10-08T17:00:00Z,26.5255,-82.0032,2.46,6.31,1111122 
SCCF RECON,ioos:station:SCCF:13:1,2013-10-08T18:00:00Z,26.5255,-82.0032,2.542,6.27,1111122 
SCCF RECON,ioos:station:SCCF:13:1,2013-10-08T19:00:00Z,26.5255,-82.0032,2.607,6.38,1111122 
SCCF RECON,ioos:station:SCCF:13:1,2013-10-08T20:00:00Z,26.5255,-82.0032,2.661,6.08,1111122 
SCCF RECON,ioos:station:SCCF:13:1,2013-10-08T21:00:00Z,26.5255,-82.0032,2.691,6.18,1111122 
SCCF RECON,ioos:station:SCCF:13:1,2013-10-08T22:00:00Z,26.5255,-82.0032,2.67,6.25,1111122 
SCCF RECON,ioos:station:SCCF:13:1,2013-10-08T23:00:00Z,26.5255,-82.0032,2.619,6.0,1111122 
SCCF RECON,ioos:station:SCCF:13:1,2013-10-09T00:00:00Z,26.5255,-82.0032,2.541,6.05,1111122 
SCCF RECON,ioos:station:SCCF:13:1,2013-10-09T01:00:00Z,26.5255,-82.0032,2.471,5.98,1111122 
SCCF RECON,ioos:station:SCCF:13:1,2013-10-09T02:00:00Z,26.5255,-82.0032,2.45,6.2,1111122 
SCCF RECON,ioos:station:SCCF:13:1,2013-10-09T03:00:00Z,26.5255,-82.0032,2.47,6.22,1111122 
SCCF RECON,ioos:station:SCCF:13:1,2013-10-09T04:00:00Z,26.5255,-82.0032,2.56,6.33,1111122 
SCCF RECON,ioos:station:SCCF:13:1,2013-10-09T05:00:00Z,26.5255,-82.0032,2.66,5.49,1111122 
SCCF RECON,ioos:station:SCCF:13:1,2013-10-09T06:00:00Z,26.5255,-82.0032,2.75,5.81,1111122 
SCCF RECON,ioos:station:SCCF:13:1,2013-10-09T07:00:00Z,26.5255,-82.0032,2.81,5.71,1111122 
SCCF RECON,ioos:station:SCCF:13:1,2013-10-09T08:00:00Z,26.5255,-82.0032,2.828,5.57,1111122 
SCCF RECON,ioos:station:SCCF:13:1,2013-10-09T09:00:00Z,26.5255,-82.0032,2.8,5.69,1111122 
SCCF RECON,ioos:station:SCCF:13:1,2013-10-09T10:00:00Z,26.5255,-82.0032,2.71,5.4,1111122 
SCCF RECON,ioos:station:SCCF:13:1,2013-10-09T11:00:00Z,26.5255,-82.0032,2.59,5.37,1111122 
SCCF RECON,ioos:station:SCCF:13:1,2013-10-09T12:00:00Z,26.5255,-82.0032,2.47,5.9,1111122 
SCCF RECON,ioos:station:SCCF:13:1,2013-10-09T13:00:00Z,26.5255,-82.0032,2.39,6.12,1111122 
SCCF RECON,ioos:station:SCCF:13:1,2013-10-09T14:00:00Z,26.5255,-82.0032,2.305,6.24,1111122 
SCCF RECON,ioos:station:SCCF:13:1,2013-10-09T15:00:00Z,26.5255,-82.0032,2.238,6.42,1111122 
SCCF RECON,ioos:station:SCCF:13:1,2013-10-09T16:00:00Z,26.5255,-82.0032,2.204,6.41,1111122 
SCCF RECON,ioos:station:SCCF:13:1,2013-10-09T17:00:00Z,26.5255,-82.0032,2.286,6.55,1111122 
SCCF RECON,ioos:station:SCCF:13:1,2013-10-09T18:00:00Z,26.5255,-82.0032,2.41,6.66,1111122 
SCCF RECON,ioos:station:SCCF:13:1,2013-10-09T19:00:00Z,26.5255,-82.0032,2.48,6.67,1111122 
SCCF RECON,ioos:station:SCCF:13:1,2013-10-09T20:00:00Z,26.5255,-82.0032,2.52,6.26,1111122 
SCCF RECON,ioos:station:SCCF:13:1,2013-10-09T21:00:00Z,26.5255,-82.0032,2.59,5.94,1111122 
SCCF RECON,ioos:station:SCCF:13:1,2013-10-09T22:00:00Z,26.5255,-82.0032,2.63,5.88,1111122 
SCCF RECON,ioos:station:SCCF:13:1,2013-10-09T23:00:00Z,26.5255,-82.0032,2.62,5.98,1111122 
SCCF RECON,ioos:station:SCCF:13:1,2013-10-10T00:00:00Z,26.5255,-82.0032,2.58,5.55,1111122 
SCCF RECON,ioos:station:SCCF:13:1,2013-10-10T01:00:00Z,26.5255,-82.0032,2.528,5.64,1111122 
SCCF RECON,ioos:station:SCCF:13:1,2013-10-10T02:00:00Z,26.5255,-82.0032,2.49,5.75,1111122 
SCCF RECON,ioos:station:SCCF:13:1,2013-10-10T03:00:00Z,26.5255,-82.0032,2.469,5.67,1111122 
SCCF RECON,ioos:station:SCCF:13:1,2013-10-10T04:00:00Z,26.5255,-82.0032,2.5,5.88,1111122 
SCCF RECON,ioos:station:SCCF:13:1,2013-10-10T05:00:00Z,26.5255,-82.0032,2.57,4.96,1111122 
SCCF RECON,ioos:station:SCCF:13:1,2013-10-10T06:00:00Z,26.5255,-82.0032,2.65,5.37,1111122 
SCCF RECON,ioos:station:SCCF:13:1,2013-10-10T07:00:00Z,26.5255,-82.0032,2.72,5.59,1111122 
SCCF RECON,ioos:station:SCCF:13:1,2013-10-10T08:00:00Z,26.5255,-82.0032,2.78,5.61,1111122 
SCCF RECON,ioos:station:SCCF:13:1,2013-10-10T09:00:00Z,26.5255,-82.0032,2.79,5.54,1111122 
SCCF RECON,ioos:station:SCCF:13:1,2013-10-10T10:00:00Z,26.5255,-82.0032,2.76,5.45,1111122 
SCCF RECON,ioos:station:SCCF:13:1,2013-10-10T11:00:00Z,26.5255,-82.0032,2.69,5.27,1111122 
SCCF RECON,ioos:station:SCCF:13:1,2013-10-10T12:00:00Z,26.5255,-82.0032,2.58,5.26,1111122 
SCCF RECON,ioos:station:SCCF:13:1,2013-10-10T13:00:00Z,26.5255,-82.0032,2.47,5.63,1111122 
SCCF RECON,ioos:station:SCCF:13:1,2013-10-10T14:00:00Z,26.5255,-82.0032,2.381,6.41,1111122 
SCCF RECON,ioos:station:SCCF:13:1,2013-10-10T15:00:00Z,26.5255,-82.0032,2.309,6.53,1111122 
SCCF RECON,ioos:station:SCCF:13:1,2013-10-10T16:00:00Z,26.5255,-82.0032,2.24,6.54,1111122 
SCCF RECON,ioos:station:SCCF:13:1,2013-10-10T17:00:00Z,26.5255,-82.0032,2.211,6.63,1111122 
SCCF RECON,ioos:station:SCCF:13:1,2013-10-10T18:00:00Z,26.5255,-82.0032,2.27,6.76,1111122 
SCCF RECON,ioos:station:SCCF:13:1,2013-10-10T19:00:00Z,26.5255,-82.0032,2.363,6.89,1111122 
SCCF RECON,ioos:station:SCCF:13:1,2013-10-10T20:00:00Z,26.5255,-82.0032,2.43,6.74,1111122 
SCCF RECON,ioos:station:SCCF:13:1,2013-10-10T21:00:00Z,26.5255,-82.0032,2.49,5.72,1111122 
SCCF RECON,ioos:station:SCCF:13:1,2013-10-10T22:00:00Z,26.5255,-82.0032,2.54,5.93,1111122 
SCCF RECON,ioos:station:SCCF:13:1,2013-10-10T23:00:00Z,26.5255,-82.0032,2.59,6.29,1111122 
SCCF RECON,ioos:station:SCCF:13:1,2013-10-11T00:00:00Z,26.5255,-82.0032,2.59,6.26,1111122 
SCCF RECON,ioos:station:SCCF:13:1,2013-10-11T01:00:00Z,26.5255,-82.0032,2.57,5.95,1111122 
SCCF RECON,ioos:station:SCCF:13:1,2013-10-11T02:00:00Z,26.5255,-82.0032,2.56,5.88,1111122 
SCCF RECON,ioos:station:SCCF:13:1,2013-10-11T03:00:00Z,26.5255,-82.0032,2.53,5.95,1111122 
SCCF RECON,ioos:station:SCCF:13:1,2013-10-11T04:00:00Z,26.5255,-82.0032,2.51,5.95,1111122 
SCCF RECON,ioos:station:SCCF:13:1,2013-10-11T05:00:00Z,26.5255,-82.0032,2.5,5.86,1111122 
SCCF RECON,ioos:station:SCCF:13:1,2013-10-11T06:00:00Z,26.5255,-82.0032,2.55,5.24,1111122 
SCCF RECON,ioos:station:SCCF:13:1,2013-10-11T07:00:00Z,26.5255,-82.0032,2.63,5.39,1111122 
SCCF RECON,ioos:station:SCCF:13:1,2013-10-11T08:00:00Z,26.5255,-82.0032,2.71,5.73,1111122 
SCCF RECON,ioos:station:SCCF:13:1,2013-10-11T09:00:00Z,26.5255,-82.0032,2.752,5.63,1111122 
SCCF RECON,ioos:station:SCCF:13:1,2013-10-11T10:00:00Z,26.5255,-82.0032,2.77,5.54,1111122 
SCCF RECON,ioos:station:SCCF:13:1,2013-10-11T11:00:00Z,26.5255,-82.0032,2.77,5.56,1111122 
SCCF RECON,ioos:station:SCCF:13:1,2013-10-11T12:00:00Z,26.5255,-82.0032,2.74,5.3,1111122 
SCCF RECON,ioos:station:SCCF:13:1,2013-10-11T13:00:00Z,26.5255,-82.0032,2.639,5.24,1111122 
SCCF RECON,ioos:station:SCCF:13:1,2013-10-11T14:00:00Z,26.5255,-82.0032,2.52,5.52,1111122 
SCCF RECON,ioos:station:SCCF:13:1,2013-10-11T15:00:00Z,26.5255,-82.0032,2.44,6.42,1111122 
SCCF RECON,ioos:station:SCCF:13:1,2013-10-11T16:00:00Z,26.5255,-82.0032,2.362,6.65,1111122 
SCCF RECON,ioos:station:SCCF:13:1,2013-10-11T17:00:00Z,26.5255,-82.0032,2.29,6.72,1111122 
SCCF RECON,ioos:station:SCCF:13:1,2013-10-11T18:00:00Z,26.5255,-82.0032,2.26,6.75,1111122 